Погода в Фофанцево

Россия / Вологодская область     59°19′45″N   39°59′59″E
темп.,
°C
ветер,
м/с
пор.,
м/с
влажн.,
%
обл.,
%
осадки,
мм/ч
давл.,
гПа
погр.,
м
8 марта, пн
пн800:00−12з238898 0.0 99128
03:00−13зсз239296 0.0 99235
06:00−10ссв4995100 0.4 994410
09:00−11ссв5892100 0.9 997599
12:00−10с5890100 0.3 1000687
15:00−10с5887100 0.4 1003769
18:00−12с5991100 0.1 1006573
21:00−16с499499 0.2 1009249
9 марта, вт
вт900:00−19ссз369998 0.0 1011102
03:00−23ссз359873 0.1 101388
06:00−25с349737 0.0 101584
09:00−24с359549 0.0 1017230
12:00−20с359050 0.0 1018392
15:00−17с468673 0.0 1019595
18:00−21с4694100 0.0 1021118
21:00−24с349765 0.0 102377
10 марта, ср
ср1000:00−26с33970 0.0 102529
03:00−27ссз23970 0.0 102622
06:00−28сз23960 0.0 102725
09:00−24сз24920 0.0 1027152
12:00−18зсз35830 0.0 1027395
15:00−16зсз458929 0.0 1027483
18:00−18зсз3396100 0.0 102642
21:00−20зсз349873 0.0 102752
11 марта, чт
чт1100:00−20зсз3310065 0.0 102843
03:00−20зсз3310080 0.0 102839
06:00−21зсз339965 0.0 102840
09:00−18зсз349442 0.0 1029144
12:00−12зсз23820 0.0 1028310
15:00−9з23770 0.0 1027433
18:00−12зюз23900 0.0 102721
21:00−17юз349413 0.0 102749
12 марта, пт
пт1200:00−18ююз34960 0.0 102768
03:00−19ююз36960 0.0 1026100
06:00−20ю47960 0.0 1025113
09:00−17ю59810 0.0 1023290
12:00−11ю59780 0.0 1022449
15:00−9ююв6108614 0.0 1019524
18:00−11ююв6138828 0.0 1017437
21:00−12ююв6148830 0.0 1016488